Probability
11 13 18 23 24 24 21 16 10 5 3 2 2 1 0 0 0 0 0 0 0 0 0 1 0 0 0 0 0 0 0 0 0 0 0 0 0 0 0 0 0 0 0
17 20 24 24 24 23 22 18 12 7 4 3 2 1 0 0 0 0 0 0 0 0 0 1 0 0 0 0 0 0 0 0 0 0 0 0 0 0 0 0 0 0 0
27 29 30 27 24 22 22 20 15 9 5 3 2 1 0 0 0 0 0 0 0 0 0 0 0 0 0 0 0 0 0 0 0 0 0 0 0 0 0 0 0 0 0
31 33 33 30 26 23 21 20 15 8 4 3 3 2 1 1 0 0 0 0 0 0 0 0 0 0 0 0 0 0 0 0 0 0 0 0 0 0 0 0 0 0 0
31 33 32 28 24 20 18 17 12 6 4 3 3 2 2 2 1 0 0 0 0 0 0 0 0 0 0 0 0 0 0 0 0 0 0 0 0 0 0 0 0 0 0
31 32 28 22 18 14 12 12 9 5 4 3 2 1 2 2 1 0 0 0 0 0 0 0 0 0 0 0 0 0 0 0 0 0 0 0 0 0 0 0 0 0 0
29 29 24 16 12 10 10 9 7 5 4 2 1 0 1 1 0 0 0 0 0 0 0 0 0 0 0 0 0 0 0 0 0 0 0 0 0 0 0 0 0 0 0
23 23 19 14 10 9 10 10 8 5 3 2 1 0 0 0 0 0 0 0 0 0 0 0 0 0 0 0 0 0 0 0 0 0 0 0 0 0 0 0 0 0 0
15 17 17 14 11 10 10 10 8 4 3 3 1 0 0 0 0 0 0 0 0 0 0 0 0 0 0 0 0 0 0 0 0 0 0 0 0 0 0 0 0 0 0
10 13 16 15 11 9 8 8 6 4 3 3 2 0 0 0 0 0 0 0 0 0 0 0 0 0 0 0 0 0 0 0 0 0 0 0 0 0 0 0 0 0 0
11 12 14 15 13 9 7 5 4 3 2 2 1 0 0 0 1 1 0 0 0 0 0 0 0 0 0 0 0 0 0 0 0 0 0 0 0 0 0 0 0 0 0
14 14 15 15 14 9 5 4 3 1 1 1 0 1 1 1 2 1 0 0 0 0 0 0 0 0 0 0 0 0 0 0 1 1 2 1 1 1 0 0 0 0 0
16 16 16 15 12 8 5 3 2 1 0 1 1 2 2 3 2 1 0 0 0 0 0 0 0 0 0 0 0 0 0 0 1 2 3 3 2 2 1 1 0 0 0
17 18 17 14 11 8 5 4 3 2 1 2 3 3 3 3 2 1 0 1 1 0 1 1 1 2 2 1 2 2 1 1 2 3 3 3 3 3 2 2 1 0 0
19 19 18 15 11 8 7 6 5 4 3 3 3 3 3 2 1 1 1 3 3 2 3 4 4 5 5 4 4 4 3 3 3 4 4 3 3 3 2 1 1 0 0
20 20 18 15 12 11 10 9 7 5 4 3 3 3 2 1 1 2 4 5 5 5 5 6 6 6 6 5 3 3 3 3 5 5 5 4 3 2 1 1 0 0 0
20 18 16 14 13 13 13 10 7 4 3 3 3 2 2 2 2 3 5 6 6 6 6 6 6 6 5 4 2 1 1 2 4 5 4 3 3 3 2 1 1 1 0
18 17 15 13 12 14 13 10 5 3 3 2 1 1 1 2 2 3 4 5 6 5 4 3 3 3 3 2 1 0 0 1 2 3 3 3 3 3 2 2 2 2 1
18 17 15 13 12 13 13 9 5 4 3 1 1 1 2 2 2 2 3 4 4 4 2 1 1 1 1 1 0 0 0 0 1 2 2 2 2 2 1 1 3 3 3
18 17 16 13 12 11 10 8 6 5 3 1 1 2 2 1 1 1 1 2 2 1 1 0 0 0 0 0 0 0 0 0 0 1 1 1 1 1 0 1 2 3 3
15 15 14 11 9 7 7 6 4 3 2 0 0 1 1 0 0 0 0 1 1 0 0 0 0 0 0 0 0 0 0 0 0 0 0 0 0 0 0 1 2 2 2
15 14 10 7 5 4 3 3 1 1 0 0 0 0 0 0 0 0 0 1 2 1 0 0 0 0 0 0 0 0 0 0 0 0 0 0 0 0 0 0 1 1 1
16 14 9 5 3 2 1 1 0 0 0 0 0 0 0 0 0 0 0 1 2 2 2 1 0 0 0 0 0 0 0 0 0 0 0 0 0 0 0 0 0 0 0
14 13 9 5 2 1 0 0 0 0 0 0 0 0 0 0 0 0 0 0 1 2 3 2 1 0 0 0 0 0 0 0 0 0 0 0 0 0 0 0 0 0 0
10 9 7 5 2 0 0 0 0 0 0 0 0 0 0 0 0 0 0 0 0 1 2 2 1 0 0 0 0 0 0 0 0 0 0 0 0 0 0 0 0 0 0
5 5 4 3 2 0 0 0 0 0 0 0 0 0 0 0 0 0 0 0 0 0 0 1 1 0 0 0 0 0 0 0 0 0 0 0 0 0 0 0 0 0 0
Wind_Speed
5 5 6 7 8 8 9 9 9 8 7 5 5 4 4 3 3 4 5 5 5 5 5 4 3 3 3 3 3 2 2 2 2 2 1 1 1 2 3 3 3 5 5
4 5 6 7 8 9 9 9 9 8 8 6 4 3 3 3 3 2 3 5 5 5 5 5 4 4 3 3 3 3 2 1 2 2 2 1 2 2 2 3 4 5 4
8 7 7 7 7 8 8 8 8 8 7 6 4 3 2 2 2 2 3 4 5 5 5 6 5 5 4 4 4 4 5 3 1 1 3 3 3 2 2 2 3 4 4
7 7 7 7 8 7 7 6 7 7 6 6 6 6 5 4 5 4 3 3 4 5 5 5 6 5 4 4 5 4 3 4 3 2 1 2 2 2 1 2 2 3 4
7 8 8 8 7 6 6 6 6 6 6 6 7 6 4 3 2 3 4 3 3 3 4 5 5 5 4 5 5 4 4 3 4 3 2 2 1 1 2 2 2 2 3
7 6 5 6 5 5 5 5 6 5 6 6 6 6 6 5 4 4 4 3 2 2 3 4 5 5 4 5 5 5 5 4 3 3 3 3 3 3 3 3 3 2 2
7 7 7 6 6 7 6 6 6 6 6 6 6 6 6 6 6 5 5 4 3 3 4 4 4 4 4 4 4 4 4 4 4 4 3 3 3 2 3 2 2 2 2
7 7 7 7 7 7 7 6 6 5 6 6 5 4 5 4 3 4 4 4 4 4 4 4 4 4 4 4 4 3 4 4 4 5 4 3 3 3 3 3 3 1 1
8 7 7 7 6 7 7 6 6 5 5 5 4 4 4 4 4 4 4 3 3 3 3 4 4 4 4 4 4 3 4 4 4 4 4 3 3 3 3 2 3 3 2
6 7 7 7 6 6 5 5 5 5 4 4 4 3 3 3 3 3 4 4 4 3 4 4 4 4 4 4 4 4 4 4 4 3 4 3 2 2 2 3 2 3 3
7 7 6 6 6 5 5 5 5 4 4 3 3 3 2 2 2 2 3 3 3 3 4 4 4 4 4 4 4 4 4 5 4 4 4 4 4 3 2 2 2 3 3
6 6 6 6 6 6 5 5 4 4 4 3 3 3 2 2 2 1 2 2 3 3 3 3 3 4 4 4 5 5 5 5 4 4 4 4 4 4 3 3 3 3 3
6 6 6 6 6 5 5 5 4 4 4 4 4 3 2 2 2 1 1 2 2 2 2 3 3 3 4 4 4 4 4 4 4 4 4 4 4 3 2 3 3 2 3
7 6 6 5 5 5 5 5 4 4 4 4 4 3 2 2 1 1 1 1 2 2 2 2 2 2 3 3 3 3 3 3 2 2 3 3 3 3 3 3 3 2 2
7 7 6 6 5 5 4 4 4 4 4 4 3 2 2 2 2 2 2 2 2 2 2 2 1 1 1 2 2 3 3 2 2 1 1 1 2 2 2 2 2 3 2
8 7 7 6 5 5 5 4 4 4 4 4 3 2 2 2 2 2 2 2 2 1 2 1 1 1 0 1 3 3 2 2 2 1 1 1 1 1 2 3 3 3 3
8 8 7 6 5 4 5 4 4 4 4 4 3 3 3 2 2 2 2 2 2 2 2 2 2 1 1 3 5 5 4 3 2 2 1 1 1 2 3 5 6 6 5
8 8 7 6 4 4 4 4 5 4 4 4 3 3 3 2 2 2 2 2 2 2 2 2 2 2 3 4 6 7 5 4 4 3 3 2 2 2 3 4 5 5 5
6 6 6 6 6 6 5 6 6 5 4 3 3 3 3 3 2 2 2 2 3 3 3 3 3 3 3 5 5 5 4 5 5 5 5 4 3 4 5 5 6 6 5
6 7 7 7 7 5 6 7 6 5 4 3 3 4 4 4 3 2 2 3 3 3 3 4 4 4 4 5 5 5 4 5 4 5 5 8 7 7 6 5 5 6 4
8 8 8 7 6 5 6 6 6 5 4 4 4 5 5 4 4 3 3 4 4 4 4 4 4 5 5 6 7 6 4 5 5 5 5 6 10 11 10 8 6 6 6
8 8 8 7 5 5 6 6 5 5 5 6 6 6 5 4 4 5 4 4 4 5 4 4 5 4 5 6 8 9 8 7 6 5 4 6 11 12 12 9 10 11 9
8 7 8 8 6 5 5 6 4 4 6 7 6 5 6 5 5 5 5 4 4 4 3 4 4 4 4 5 9 10 10 10 7 7 10 11 12 12 11 13 12 9 6
7 7 8 8 6 5 5 5 4 5 6 7 5 5 6 6 6 5 4 4 4 4 4 4 4 4 4 4 4 5 6 9 9 8 10 13 13 10 10 9 8 6 6
6 6 7 7 7 6 6 5 4 6 7 7 6 6 6 6 6 7 6 5 5 4 4 3 4 4 4 4 5 5 5 5 6 6 6 6 6 7 6 6 6 5 5
6 7 7 7 7 7 6 5 4 5 7 6 6 5 5 5 5 7 8 15 12 14 13 9 7 7 8 9 11 11 11 11 10 8 7 6 6 6 5 5 5 5 5
Wind_Direction
185 162 167 169 163 169 174 181 182 177 169 165 169 175 189 188 193 197 194 188 187 181 174 180 174 174 178 178 161 137 130 117 125 99 43 349 297 242 235 230 230 230 228
170 165 164 167 172 177 178 179 182 178 179 180 173 170 164 181 190 195 192 190 188 185 185 181 180 178 171 168 167 150 138 138 148 137 121 354 330 295 241 226 228 234 228
186 180 173 175 170 176 182 183 183 181 181 171 148 131 118 121 156 189 202 202 192 192 189 185 180 181 176 182 184 171 162 164 171 167 152 161 228 283 296 249 235 232 227
181 176 175 176 178 181 178 176 176 178 175 167 168 168 176 185 195 190 193 194 194 197 193 188 184 185 183 185 191 182 174 159 173 187 193 176 165 172 287 305 268 247 236
177 179 183 180 177 172 171 169 166 174 173 175 180 180 186 190 178 167 176 191 197 203 196 189 186 189 190 190 188 177 180 175 172 176 169 159 139 153 175 265 297 285 250
172 172 164 152 156 157 161 165 168 175 175 180 185 189 187 180 175 180 184 193 198 204 200 190 189 192 192 191 191 187 184 187 178 177 176 173 174 187 184 215 250 269 279
162 157 156 158 161 165 168 167 172 178 180 184 192 197 194 187 193 192 192 193 197 202 206 199 191 190 196 192 183 183 192 190 187 192 199 199 200 174 173 184 221 255 285
160 161 166 169 173 172 170 170 175 182 182 186 194 196 192 192 199 196 191 196 203 205 197 193 189 188 189 193 183 189 200 197 202 206 200 203 209 193 186 180 172 216 287
163 163 163 171 174 171 173 176 174 178 182 185 183 187 190 190 194 197 196 197 199 197 188 191 190 193 193 193 185 197 201 193 203 208 206 209 217 206 207 193 181 181 221
159 158 161 168 168 161 157 159 164 171 173 172 180 187 192 195 188 180 190 191 193 189 175 186 187 192 197 197 193 200 199 195 206 204 203 210 216 210 203 204 204 198 197
163 159 160 158 147 137 140 147 153 150 152 161 162 165 172 173 168 182 190 187 187 184 182 183 186 193 198 198 195 202 194 199 211 212 206 215 202 201 205 202 201 203 194
150 149 149 143 141 144 146 152 156 148 150 149 141 148 145 142 156 183 185 173 178 181 183 181 188 197 200 196 195 202 201 202 213 220 214 224 205 201 207 203 209 208 201
142 137 139 147 151 153 154 155 157 153 147 141 136 133 133 141 165 187 173 163 168 170 174 177 188 195 196 195 197 196 198 203 213 217 214 219 198 203 208 206 212 213 204
145 142 145 149 150 150 155 156 156 152 146 139 138 141 152 155 158 151 142 149 153 153 161 171 181 183 184 188 185 182 188 186 195 212 214 203 192 208 209 211 214 207 196
151 154 152 149 147 147 149 153 152 147 145 140 137 147 138 122 108 103 115 118 129 148 143 139 138 146 171 187 176 169 171 169 161 147 156 148 142 166 184 189 190 178 167
160 153 147 146 151 158 156 150 147 147 141 139 140 131 118 113 109 105 108 106 105 108 107 113 118 105 152 132 145 150 142 141 133 130 116 109 101 98 106 116 120 133 164
157 155 156 156 153 151 150 149 146 136 130 129 125 123 124 123 123 115 105 108 111 106 100 97 99 94 78 95 102 105 111 107 106 107 95 81 59 83 98 83 75 68 66
161 157 151 143 131 121 123 124 119 121 122 119 117 116 119 117 105 100 102 105 99 97 94 90 94 88 74 89 101 104 101 88 78 73 70 75 54 66 101 100 85 71 54
142 136 134 130 122 120 126 120 115 112 109 109 112 115 118 114 107 107 105 101 97 88 81 75 82 87 68 71 97 107 98 87 73 65 62 67 66 67 101 107 100 84 66
107 110 108 104 106 111 119 116 113 111 106 98 100 103 105 106 105 104 97 91 94 93 86 73 66 73 66 62 82 101 104 96 83 67 60 61 69 65 80 97 101 93 74
104 107 106 102 101 105 111 112 110 105 97 95 95 91 89 92 89 85 84 90 91 89 85 80 68 63 61 63 70 86 102 108 96 78 62 56 68 70 71 76 81 90 90
103 105 103 95 89 95 107 109 107 102 99 97 92 86 81 82 82 84 79 83 91 88 83 83 70 54 53 63 73 82 90 100 98 91 79 74 74 72 71 74 79 83 83
107 104 107 98 83 81 99 108 99 99 100 95 90 86 82 76 76 82 81 80 81 89 84 84 78 63 59 65 73 82 87 91 91 87 88 82 77 74 70 69 71 74 76
112 113 112 108 94 78 76 90 98 99 101 99 94 92 91 83 72 66 66 76 78 87 92 95 91 79 67 65 73 80 83 84 86 84 82 78 73 72 71 67 63 63 68
106 109 111 109 101 91 85 84 93 103 103 99 95 92 89 92 81 69 55 61 53 72 96 94 97 97 85 64 84 96 90 93 99 98 82 74 71 69 65 61 57 58 62
107 105 102 103 100 97 90 83 88 102 109 106 101 97 97 96 98 95 76 56 64 65 66 72 86 77 84 89 85 86 89 92 99 92 86 80 76 74 71 70 63 55 55